PEGASUS DEB, 24973

Orbit data source: Space-Track

PEGASUS DEB, 24973 is space debris in LEO originally from a launch on Thu, 19 May 1994 UTC launched from the Air Force Western Test Range (AFWTR). Debris objects in space refer to the collection of defunct objects orbiting the Earth. Examples of debris include non-operational satellites, rocket bodies, and fragments generated from explosions, collisions, or faulty payload assembly.

Loading next visibility...
Identifier
24973, 1994-029ACF
Orbit
LEO
Country
Flag of USUS
Related business
Manufacturer
Unknown
Mission
Spacecraft
Bus & Motor
Unknown
Mass
Unknown
Launch date (UTC)
1994-05-19 (32 years ago)
Launch vehicle
Unknown
Launch site
Air Force Western Test Range (AFWTR)
Object type
Payload
Rocket body
Debris
Shape & HBR
Unknown shape, 0.1 m
Radar Cross Section
Small (<0.1 m²)

Expand to show TLE details & history
Last TLE update: 22 hours ago

TLE from 22 hours ago
0 PEGASUS DEB
1 24973U 94029ACF 26119.38306904  .00002567  00000-0  53356-3 0  9996
2 24973  82.0118  90.6463 0293400 295.4623 218.4134 14.36197758541839
Epoch: 2026-04-29T09:11Z
TLE epoch observation values (Epoch: 2026-04-29T09:11:37.165Z)
Latitude
27.89785°
Longitude
-88.84191°
Altitude
941.234 km
Speed
7.297 km/s
True Right ascension
17h 45m 37s
True Declination
27° 45' 34"
Sunlit
Object was in daylight at epoch
Visualization orbit readout
Latitude
Unknown
Longitude
Unknown
Altitude
Unknown
Speed
Unknown
Apparent Right ascension
Unknown
Apparent Declination
Unknown
Sunlit
N/A
Visualization observer readout
Local Sidereal Time
14:30:14
Azimuth
Unknown
Elevation
Unknown
Doppler factor
Unknown
Orbital elements
Apogee altitude
977.862 km
Perigee altitude
558.515 km
Semi-major axis
7,146.326 km
Eccentricity
0.02934
Inclination
82.0118°
RAAN
90.6463°
Arg. of periapsis
295.4623°
True anomaly
216.38325°
Mean anomaly
218.4134°
Eccentric anomaly
217.39254°
Mean motion
3.59268 °/min
Orbital period
100.2 mins
BSTAR
0.00053356
Loading maneuver chart data...
Computing Atmospheric mass density...
Loading historical data...
Loading historical data...
Loading historical data...
Loading historical data...
Loading historical data...
Loading historical data...
Loading historical data...

Documentation

Showing up to 5 results
|